User: anonymous
Location: Unspecified
(0.0000°N, 0.0000°E)
Time: 06:17:33
(UTC+00:00)
Language:

COSMOS 2468 - Orbit

View from above orbital plane
View from above orbital plane
View from above satellite
View from above satellite

Ground track
Ground track

The orbit data is extracted from the following two-line orbital elements,

1 37154U 10043C   14204.69062290 -.00000004  00000-0 -10173-3 0  2010
2 37154 082.4629 262.9526 0015841 086.7221 273.5664 12.42886862175687
Epoch (UTC): 23 July 2014 16:34:29
Eccentricity: 0.0015841
inclination: 82.4629°
perigee height: 1482 km
apogee height: 1507 km
right ascension of ascending node: 262.9526°
argument of perigee: 86.7221°
revolutions per day: 12.42886862
mean anomaly at epoch: 273.5664°
orbit number at epoch: 17568

The dashed part of the orbit path shows where the satellite is in the earth's shadow,  

DLR